Weather History for Point Hope, AK

Change the Weather History Date:

Friday, May 24, 2013

  Actual Average Record
Temperature  
Mean Temperature 34 °F -  
Max Temperature 35 °F 33 °F 55 °F (2011)
Min Temperature 33 °F 25 °F 14 °F (2000)
Degree Days  
Heating Degree Days 31    
Moisture  
Dew Point 31 °F    
Average Humidity 87    
Maximum Humidity 93    
Minimum Humidity 81    
Precipitation  
Precipitation 0.00 in - - ()
Sea Level Pressure  
Sea Level Pressure 30.07 in    
Wind  
Wind Speed 19 mph (South)    
Max Wind Speed 25 mph    
Max Gust Speed 30 mph    
Visibility 6 miles    
Events      
Averages and records for this station are not official NWS values.
T = Trace of Precipitation, MM = Missing Value Source: NWS Daily Summary

Daily Weather History Graph

Daily Weather History Graph

Search for Another Location

Airport:

Trip Planner

Search our weather history database for the weather conditions in past years. The results will help you decide how hot, cold, wet, or windy it might be!

Date:

Astronomy

May. 24, 2013 Rise Set
Actual Time 3:36 AM AKDT 2:31 AM AKDT
Civil Twilight Sun does not rise Sun does not rise
Nautical Twilight Sun does not rise Sun does not rise
Astronomical Twilight Sun does not rise Sun does not rise
Moon No Moon Rise 4:39 AM AKDT (5/24)
Length of Visible Light 24h 00m
Length of Day
22h 55m
Full, 100% of the Moon is Illuminated
May 24
Full
May 24
Full
May 31
Last Quarter
Jun 8
New
Jun 16
First Quarter

Hourly Weather History & Observations

Time (AKDT) Temp. Windchill Dew Point Humidity Pressure Visibility Wind Dir Wind Speed Gust Speed Precip Events Conditions
12:16 AM 33.8 °F 21.6 °F 30.2 °F 87% 30.01 in 9.0 mi South 23.0 mph 28.8 mph N/A   Overcast
12:36 AM 33.8 °F 21.9 °F 30.2 °F 87% 30.01 in 7.0 mi South 21.9 mph 27.6 mph N/A   Overcast
12:56 AM 33.8 °F 21.6 °F 30.2 °F 87% 30.01 in 3.0 mi South 23.0 mph - N/A   Overcast
1:16 AM 33.8 °F 22.2 °F 30.2 °F 87% 30.02 in 1.8 mi South 20.7 mph - N/A   Overcast
1:36 AM 33.8 °F 22.2 °F 30.2 °F 87% 30.02 in 0.8 mi South 20.7 mph 26.5 mph N/A   Overcast
1:56 AM 33.8 °F 21.9 °F 30.2 °F 87% 30.03 in 0.8 mi South 21.9 mph - N/A   Overcast
2:16 AM 33.8 °F 22.2 °F 30.2 °F 87% 30.03 in 1.0 mi South 20.7 mph 27.6 mph N/A   Overcast
2:36 AM 33.8 °F 21.9 °F 30.2 °F 87% 30.03 in 2.0 mi South 21.9 mph 27.6 mph N/A   Overcast
2:56 AM 33.8 °F 21.0 °F 30.2 °F 87% 30.03 in 2.0 mi South 25.3 mph - N/A   Overcast
3:16 AM 33.8 °F 22.2 °F 30.2 °F 87% 30.04 in 10.0 mi South 20.7 mph 28.8 mph N/A   Overcast
3:36 AM 33.8 °F 22.5 °F 30.2 °F 87% 30.04 in 5.0 mi South 19.6 mph 27.6 mph N/A   Overcast
3:56 AM 33.8 °F 23.2 °F 30.2 °F 87% 30.05 in 3.0 mi South 17.3 mph - N/A   Overcast
4:16 AM 33.8 °F 22.8 °F 30.2 °F 87% 30.04 in 2.5 mi South 18.4 mph - N/A   Overcast
4:36 AM 33.8 °F 21.3 °F 30.2 °F 87% 30.04 in 3.0 mi South 24.2 mph 29.9 mph N/A   Overcast
4:56 AM 33.8 °F 21.9 °F 30.2 °F 87% 30.04 in 2.0 mi South 21.9 mph - N/A   Overcast
5:16 AM 33.8 °F 22.5 °F 30.2 °F 87% 30.05 in 1.0 mi South 19.6 mph 26.5 mph N/A   Overcast
5:36 AM 33.8 °F 21.6 °F 30.2 °F 87% 30.04 in 0.5 mi South 23.0 mph 28.8 mph N/A   Overcast
5:56 AM 33.8 °F 21.6 °F 30.2 °F 87% 30.04 in 0.8 mi South 23.0 mph 27.6 mph N/A   Overcast
6:16 AM 33.8 °F 22.2 °F 30.2 °F 87% 30.05 in 0.8 mi South 20.7 mph 26.5 mph N/A   Overcast
6:36 AM 33.8 °F 22.5 °F 30.2 °F 87% 30.05 in 1.0 mi South 19.6 mph - N/A   Overcast
6:56 AM 33.8 °F 22.5 °F 30.2 °F 87% 30.05 in 1.0 mi South 19.6 mph 24.2 mph N/A   Overcast
7:16 AM 33.8 °F 22.8 °F 32.0 °F 93% 30.06 in 1.0 mi South 18.4 mph - N/A   Overcast
7:36 AM 33.8 °F 22.8 °F 30.2 °F 87% 30.06 in 0.8 mi South 18.4 mph - N/A   Overcast
7:56 AM 33.8 °F 23.2 °F 32.0 °F 93% 30.07 in 1.0 mi South 17.3 mph - N/A   Overcast
8:16 AM 33.8 °F 22.8 °F 30.2 °F 87% 30.06 in 1.5 mi South 18.4 mph - N/A   Overcast
8:36 AM 33.8 °F 22.2 °F 30.2 °F 87% 30.06 in 2.0 mi South 20.7 mph - N/A   Overcast
8:56 AM 33.8 °F 22.5 °F 30.2 °F 87% 30.07 in 1.2 mi South 19.6 mph - N/A   Overcast
9:16 AM 33.8 °F 22.5 °F 30.2 °F 87% 30.07 in 1.0 mi South 19.6 mph 27.6 mph N/A   Overcast
9:36 AM 33.8 °F 22.8 °F 30.2 °F 87% 30.08 in 0.8 mi South 18.4 mph 26.5 mph N/A   Overcast
9:56 AM 33.8 °F 22.8 °F 30.2 °F 87% 30.08 in 1.0 mi South 18.4 mph - N/A   Overcast
10:16 AM 33.8 °F 21.9 °F 30.2 °F 87% 30.08 in 1.8 mi South 21.9 mph 26.5 mph N/A   Overcast
10:36 AM 33.8 °F 21.9 °F 30.2 °F 87% 30.08 in 2.5 mi South 21.9 mph - N/A   Overcast
10:56 AM 33.8 °F 21.9 °F 32.0 °F 93% 30.08 in 1.2 mi South 21.9 mph 26.5 mph N/A   Overcast
11:16 AM 33.8 °F 22.2 °F 32.0 °F 93% 30.09 in 1.8 mi South 20.7 mph - N/A   Overcast
11:36 AM 33.8 °F 22.5 °F 32.0 °F 93% 30.09 in 2.5 mi South 19.6 mph - N/A   Overcast
11:56 AM 33.8 °F 22.5 °F 32.0 °F 93% 30.09 in 5.0 mi South 19.6 mph - N/A   Overcast
12:36 PM 33.8 °F 22.2 °F 32.0 °F 93% 30.09 in 9.0 mi South 20.7 mph - N/A   Overcast
12:56 PM 33.8 °F 22.2 °F 32.0 °F 93% 30.09 in 10.0 mi South 20.7 mph - N/A   Overcast
1:16 PM 33.8 °F 22.8 °F 32.0 °F 93% 30.09 in 10.0 mi South 18.4 mph - N/A   Overcast
1:36 PM 33.8 °F 22.5 °F 32.0 °F 93% 30.09 in 10.0 mi South 19.6 mph - N/A   Overcast
1:56 PM 33.8 °F 23.5 °F 30.2 °F 87% 30.10 in 10.0 mi South 16.1 mph - N/A   Overcast
2:16 PM 33.8 °F 23.5 °F 32.0 °F 93% 30.09 in 10.0 mi South 16.1 mph - N/A   Overcast
2:36 PM 33.8 °F 23.2 °F 30.2 °F 87% 30.09 in 10.0 mi South 17.3 mph - N/A   Overcast
2:56 PM 35.6 °F 27.1 °F 32.0 °F 87% 30.09 in 10.0 mi South 12.7 mph - N/A   Mostly Cloudy
3:16 PM 35.6 °F 26.6 °F 30.2 °F 81% 30.10 in 10.0 mi SSE 13.8 mph - N/A   Overcast
3:36 PM 33.8 °F 24.3 °F 30.2 °F 87% 30.10 in 10.0 mi South 13.8 mph - N/A   Overcast
3:56 PM 35.6 °F 27.1 °F 30.2 °F 81% 30.10 in 10.0 mi SSE 12.7 mph - N/A   Overcast
4:16 PM 35.6 °F 25.5 °F 30.2 °F 81% 30.10 in 10.0 mi SSE 17.3 mph - N/A   Overcast
4:36 PM 35.6 °F 26.2 °F 30.2 °F 81% 30.10 in 10.0 mi SSE 15.0 mph - N/A   Overcast
4:56 PM 35.6 °F 27.1 °F 30.2 °F 81% 30.10 in 10.0 mi SSE 12.7 mph - N/A   Overcast
5:16 PM 35.6 °F 26.2 °F 30.2 °F 81% 30.10 in 10.0 mi SSE 15.0 mph - N/A   Overcast
5:36 PM 35.6 °F 26.6 °F 30.2 °F 81% 30.10 in 10.0 mi SSE 13.8 mph - N/A   Overcast
5:56 PM 35.6 °F 27.1 °F 30.2 °F 81% 30.10 in 10.0 mi SSE 12.7 mph - N/A   Overcast
6:16 PM 35.6 °F 26.6 °F 30.2 °F 81% 30.10 in 10.0 mi SSE 13.8 mph - N/A   Overcast
6:36 PM 35.6 °F 26.6 °F 30.2 °F 81% 30.10 in 10.0 mi SSE 13.8 mph - N/A   Overcast
6:56 PM 35.6 °F 26.6 °F 30.2 °F 81% 30.09 in 10.0 mi SSE 13.8 mph - N/A   Overcast
7:16 PM 33.8 °F 23.5 °F 30.2 °F 87% 30.09 in 10.0 mi SSE 16.1 mph - N/A   Overcast
7:36 PM 33.8 °F 23.9 °F 30.2 °F 87% 30.09 in 10.0 mi SSE 15.0 mph - N/A   Overcast
7:56 PM 33.8 °F 23.9 °F 30.2 °F 87% 30.08 in 10.0 mi SSE 15.0 mph - N/A   Overcast
8:16 PM 33.8 °F 25.3 °F 30.2 °F 87% 30.08 in 10.0 mi SSE 11.5 mph - N/A   Overcast
8:36 PM 33.8 °F 26.4 °F 30.2 °F 87% 30.08 in 10.0 mi SSE 9.2 mph - N/A   Overcast
9:16 PM 33.8 °F 25.3 °F 30.2 °F 87% 30.07 in 10.0 mi SSE 11.5 mph - N/A   Overcast
9:36 PM 33.8 °F 25.8 °F 30.2 °F 87% 30.07 in 10.0 mi SSE 10.4 mph - N/A   Overcast
9:56 PM 33.8 °F 25.8 °F 30.2 °F 87% 30.07 in 10.0 mi South 10.4 mph - N/A   Overcast
10:16 PM 33.8 °F 25.8 °F 30.2 °F 87% 30.07 in 10.0 mi South 10.4 mph - N/A   Overcast
10:36 PM 33.8 °F 25.8 °F 30.2 °F 87% 30.06 in 10.0 mi SSE 10.4 mph - N/A   Overcast
10:56 PM 33.8 °F 26.4 °F 30.2 °F 87% 30.06 in 10.0 mi SSE 9.2 mph - N/A   Overcast
11:16 PM 33.8 °F 25.8 °F 30.2 °F 87% 30.06 in 10.0 mi SE 10.4 mph - N/A   Overcast
11:36 PM 33.8 °F 25.8 °F 30.2 °F 87% 30.06 in 10.0 mi SE 10.4 mph - N/A   Overcast
11:56 PM 33.8 °F 25.8 °F 30.2 °F 87% 30.06 in 10.0 mi SE 10.4 mph - N/A   Overcast